Погода в Самарке

Россия / Приморский край     44°44′10″N   134°12′54″E
темп.,
°C
ветер,
м/с
пор.,
м/с
влажн.,
%
обл.,
%
осадки,
мм/ч
давл.,
гПа
погр.,
м
6 мая, чт
чт601:00+4ю249636 0.1 100392
04:00+4ююз3139028 0.1 1003431
07:00+6юз31383100 0.0 1005694
10:00+13юз511545 0.1 10051377
13:00+17зюз6133119 0.0 10043171
16:00+18зюз6133126 0.0 10032738
19:00+16юз410477 0.0 1003664
22:00+10ююв2367100 0.0 100547
7 мая, пт
пт701:00+10ю2272100 0.0 100534
04:00+8юв22795 0.0 100414
07:00+9юв12726 0.0 100351
10:00+18ю49405 0.0 10001328
13:00+21ююз51126100 0.0 9972262
16:00+21ю51027100 0.0 9922770
19:00+14ююв4953100 0.1 991478
22:00+11юв38654 0.2 990647
8 мая, сб
сб801:00+6вюв2491100 0.0 989106
04:00+7ю41391100 1.8 9901445
07:00+8юз51193100 1.1 9921104
10:00+8юз499195 1.7 995841
13:00+16зюз51041100 0.1 9952113
16:00+17ю1742100 0.1 9911467
19:00+15юв4947100 0.0 990531
22:00+10вюв2571100 0.0 989168
9 мая, вс
вс901:00+9ююв1379100 0.1 989167
04:00+7юв2497100 9.8 988238
07:00+5юз2496100 9.1 989613
10:00+4зюз2598100 16.3 990604
13:00+3зюз4898100 2.7 992731
16:00+2зюз4999100 7.1 993544
19:00+1зюз2699100 3.1 996303
22:00+1зюз13100100 5.2 998207
10 мая, пн
пн1001:00+2юз12100100 0.4 1000178
04:00+2юз1499100 0.8 1001326
07:00+2юз1499100 0.6 1003312
10:00+4зюз2899100 0.9 1004465
13:00+5з3898100 0.1 1006706
16:00+6з4997100 0.1 1007949
19:00+5зсз4898100 0.2 1009939
22:00+4зсз1599100 0.4 1012606